User: anonymous   Login
Location: Eschertshofen
(49.3064°N, 11.5756°E)
Time: 07:47:32
(UTC+00:00)
Language:

Terra - Orbit

View from above orbital plane
View from above orbital plane
View from above satellite
View from above satellite

Ground track
Ground track

The orbit data is extracted from the following two-line orbital elements,

1 25994U 99068A   20330.20470473  .00000082  00000-0  28334-4 0  9990
2 25994  98.1996  42.1340 0001162  91.1709 291.7661 14.57118184113720
Epoch (UTC): 25 November 2020 04:54:46
Eccentricity: 0.0001162
inclination: 98.1996°
perigee height: 701 km
apogee height: 703 km
right ascension of ascending node: 42.1340°
argument of perigee: 91.1709°
revolutions per day: 14.57118184
mean anomaly at epoch: 291.7661°
orbit number at epoch: 11372

The dashed part of the orbit path shows where the satellite is in the earth's shadow,  

DLR